Tracking 19847 objects as of 15-Sep-2019
HD Live streaming from Space Station
objects crossing your sky now

CANX-6

Track CANX-6 now!
10-day predictions
CANX-6 is classified as:


NORAD ID: 32784
Int'l Code: 2008-021B
Perigee: 605.1 km
Apogee: 624.7 km
Inclination: 97.6 °
Period: 96.8 minutes
Semi major axis: 6985 km
RCS: 0.1943 m2 (medium)
Launch date: April 28, 2008
Source: Canada (CA)
Launch site: SRIHARIKOTA (SRI)

CanX 6 is a 14-pound [6-kg] Canadian spacecraft designed to track ships using maritime navigation signals transmitted from sea vessels.
aabbcc
Your satellite tracking list
Your tracking list is empty




NASA's NSSDC Master Catalog

Two Line Element Set (TLE):
1 32784U 08021B   19257.82521384 +.00000137 +00000-0 +21119-4 0  9991
2 32784 097.5763 249.1383 0014034 352.3168 007.7832 14.86856555616321
Source of the keplerian elements: AFSPC